Lid_Strength_Index
4 4 3 3 3 4 4 4 4 4 4 3 3 3 3 3 3 5 10 9 8 1 -1 2 4 6 8 8 4 5 12 14 13 12 11 7 8 5 4 6 5 5 5 4 2
4 4 4 4 4 4 4 4 4 4 4 4 4 4 3 3 6 7 4 3 2 -2 2 6 7 8 12 11 8 8 12 12 9 9 9 8 7 7 7 7 7 6 4 3 2
4 4 4 4 3 3 3 3 4 4 4 4 4 4 3 3 9 11 0 -0 -1 -1 5 7 7 9 10 10 9 8 11 8 8 7 7 8 7 6 7 9 7 7 6 4 4
4 4 4 4 3 3 3 4 4 4 4 5 4 4 3 6 15 4 -2 -2 -2 2 8 9 9 10 11 10 9 10 8 7 7 7 7 8 6 7 7 7 5 5 4 4 4
4 4 4 4 4 3 4 4 4 4 5 4 4 4 6 10 11 5 -2 -2 0 5 9 10 8 9 10 9 7 9 8 7 7 7 7 6 8 8 7 5 4 4 4 4 4
5 5 4 4 4 4 4 4 4 4 5 4 4 3 9 15 8 0 0 1 2 8 10 9 8 6 8 9 9 7 8 8 7 7 7 8 8 7 7 5 5 5 5 4 4
5 4 4 4 4 4 4 4 4 4 4 5 4 3 8 12 4 1 1 3 5 9 10 10 5 6 7 10 7 7 10 9 8 8 9 7 10 10 6 5 6 6 5 4 4
4 5 5 4 4 4 4 4 4 4 5 4 3 6 12 6 5 3 5 6 7 10 9 9 5 6 8 8 9 10 10 14 9 8 8 8 14 9 6 6 7 6 5 5 4
4 5 5 5 5 4 4 4 3 3 3 3 8 9 11 2 5 5 5 6 7 9 10 6 6 8 12 14 15 14 16 14 12 8 9 9 13 8 6 7 7 6 6 5 5
4 5 5 5 5 5 4 4 2 2 2 3 4 9 6 6 5 5 4 6 8 8 9 9 11 13 15 15 17 15 15 14 13 10 10 11 12 9 7 7 7 7 6 5 5
4 4 5 5 5 5 7 6 7 8 6 10 10 7 5 4 4 4 4 6 7 9 10 11 13 14 14 13 13 14 14 13 12 9 11 11 12 10 8 7 7 7 6 6 5
4 4 5 5 5 5 7 9 7 6 9 5 5 6 5 5 6 5 4 8 8 10 11 13 14 11 11 12 13 14 14 14 11 10 11 12 12 10 8 8 7 7 7 6 5
4 4 5 5 4 7 8 6 5 5 10 8 5 6 7 5 7 7 5 7 9 12 12 13 11 9 10 13 13 15 15 14 14 11 10 11 13 12 9 8 7 6 6 5 5
4 4 5 5 8 6 6 4 5 5 13 10 10 7 6 6 8 4 5 7 9 11 11 11 9 9 11 11 12 16 12 10 12 14 17 11 18 13 11 10 9 7 7 6 5
4 4 5 5 8 6 6 6 6 8 16 8 9 5 7 7 7 7 5 7 10 10 11 11 11 10 11 10 10 13 9 10 12 14 15 15 16 14 11 12 10 8 7 6 5
4 5 5 6 6 4 4 6 8 13 16 10 8 9 9 9 9 6 7 6 6 9 10 9 8 9 9 8 8 8 10 11 12 14 18 15 16 16 14 12 10 8 7 6 5
5 6 5 4 7 4 5 7 13 15 9 10 10 10 10 11 9 8 9 10 11 13 13 10 9 9 8 11 9 10 13 19 20 20 20 16 16 15 11 9 9 8 7 6 5
6 7 5 4 4 4 6 9 16 11 11 8 9 11 11 10 10 10 10 12 10 11 13 14 14 10 9 10 10 12 13 17 22 21 19 15 18 15 10 8 7 7 6 6 5
7 9 7 4 4 5 7 13 13 11 9 9 10 11 12 9 10 10 11 12 11 11 13 14 13 9 9 9 8 12 14 12 15 16 18 17 15 11 9 9 8 8 7 7 6
9 8 7 4 4 6 9 12 11 8 8 9 12 11 13 11 11 11 11 9 10 10 11 12 14 12 9 9 9 10 9 14 15 19 20 19 18 17 13 11 9 9 8 7 6
9 9 6 4 6 7 11 12 9 7 7 9 11 12 12 12 12 12 12 9 9 9 11 12 13 12 11 12 13 12 13 14 14 15 18 20 18 11 11 10 10 8 7 7 6
10 9 6 5 9 12 12 10 8 9 7 9 9 10 11 11 12 12 12 10 8 9 12 12 13 15 13 11 11 12 13 14 15 16 16 17 17 9 9 8 8 8 7 6 6
9 9 5 7 11 12 11 9 9 9 10 9 9 9 10 11 13 11 10 7 7 10 13 12 14 15 14 13 12 13 13 15 15 13 17 17 17 9 9 9 8 8 7 6 5
9 11 10 10 11 12 11 11 11 8 9 9 9 9 10 11 11 12 10 8 8 9 5 8 14 14 16 15 14 14 13 14 15 15 16 15 15 12 10 10 9 8 7 6 6
8 10 10 11 10 12 11 12 10 11 9 8 10 9 11 12 12 12 10 10 9 6 10 11 14 13 12 12 12 13 13 13 14 14 14 14 14 12 10 9 8 7 6 6 6
9 9 9 10 10 12 13 12 11 10 9 10 10 10 10 12 11 12 11 12 12 10 11 12 14 13 13 10 11 13 13 12 12 13 13 13 15 9 8 8 8 7 7 7 6
6 7 8 9 12 12 12 11 9 9 8 8 9 10 11 11 10 10 10 11 12 11 11 12 12 14 16 12 11 14 14 13 11 11 12 15 12 9 9 9 8 7 7 6 6